Погода в Ельце

Россия / Белгородская область     50°41′50″N   38°03′10″E
темп.,
°C
ветер,
м/с
пор.,
м/с
влажн.,
%
обл.,
%
осадки,
мм/ч
давл.,
гПа
погр.,
м
14 мая, пт
пт1400:00+13в3390100 0.1 101542
03:00+12вюв339270 1.4 101540
06:00+13в31093100 0.4 1014208
09:00+18вюв61281100 0.4 1013511
12:00+20вюв81373100 0.0 1012563
15:00+21вюв61172100 0.1 1011437
18:00+21юв7147497 0.0 1010512
21:00+17юв4108886 0.0 1010174
15 мая, сб
сб1500:00+16ююв3793100 0.0 1010117
03:00+15юз22925 0.0 101112
06:00+15ююз3384100 0.0 101163
09:00+18юз467250 0.0 1012376
12:00+22юз56551 0.0 10131202
15:00+22юз5653100 0.0 10131632
18:00+21ююз35655 0.0 1013344
21:00+16ю22765 0.0 101311
16 мая, вс
вс1600:00+15ююв2277100 0.0 101411
03:00+14ююв1180100 0.0 101410
06:00+15юв118198 0.0 101418
09:00+20вюв22655 0.0 1014401
12:00+23в335653 0.0 10131110
15:00+24всв4457100 0.0 10121584
18:00+22всв3675100 1.4 1011205
21:00+18всв338493 1.5 101134
17 мая, пн
пн1700:00+16всв468252 0.0 101074
03:00+15всв498490 0.0 1009144
06:00+15вюв4148120 0.0 1009254
09:00+21юв61561100 0.0 1009562
12:00+25вюв81555100 0.0 10081346
15:00+25юв7145588 0.0 10071881
18:00+23юв5116565 0.0 1007511
21:00+18ююв4117913 0.0 1008195
18 мая, вт
вт1800:00+17ююв228076 0.0 100814
03:00+16ююв228377 0.0 100811
06:00+17юв2383100 0.0 100874
09:00+18юз3591100 2.4 1008248
12:00+21юз457999 1.4 1010829
15:00+21зюз567058 2.0 10111117
18:00+21зюз34720 0.1 1011981
21:00+17ссв11840 0.1 101211